Location: Newark
(19.4083°N, 89.7712°W)
Time: 09:52:41
(UTC+00:00)

Tiangong 2 - Pass Details

Date: 28 July 2019
Orbit: 185 x 376 km, 42.8° (Epoch: 19 July)

Event Time Altitude Azimuth Distance (km) Brightness Sun altitude
Rises 02:03:48 0° 294° (WNW) 2,145 6.5 -19.3°
Reaches altitude 10° 02:06:04 10° 278° (W) 1,310 4.8 -19.8°
Maximum altitude 02:08:28 22° 225° (SW) 828 2.9 -20.3°
Enters shadow 02:08:29 22° 224° (SW) 828 2.8 -20.3°
